TimeEDT,TemperatureF,Dew PointF,Humidity,Sea Level PressureIn,VisibilityMPH,Wind Direction,Wind SpeedMPH,Gust SpeedMPH,PrecipitationIn,Events,Conditions,WindDirDegrees,DateUTC
12:00 AM,77.2,75.2,94,29.93,10.0,Calm,Calm,-,N/A,,Scattered Clouds,0,2013-07-22 04:00:00
12:20 AM,77.4,75.6,94,29.93,10.0,Calm,Calm,-,N/A,,Scattered Clouds,0,2013-07-22 04:20:00
12:40 AM,77.2,75.6,95,29.92,10.0,Calm,Calm,-,N/A,,Clear,0,2013-07-22 04:40:00
1:00 AM,76.3,75.4,97,29.92,10.0,Calm,Calm,-,N/A,,Scattered Clouds,0,2013-07-22 05:00:00
1:20 AM,76.1,75.6,98,29.92,10.0,Calm,Calm,-,N/A,,Scattered Clouds,0,2013-07-22 05:20:00
1:40 AM,76.8,75.2,95,29.92,10.0,Calm,Calm,-,N/A,,Mostly Cloudy,0,2013-07-22 05:40:00
2:00 AM,76.5,75.6,97,29.92,10.0,Calm,Calm,-,N/A,,Mostly Cloudy,0,2013-07-22 06:00:00
2:20 AM,76.1,75.4,98,29.92,10.0,Calm,Calm,-,N/A,,Scattered Clouds,0,2013-07-22 06:20:00
2:40 AM,75.7,75.4,99,29.92,10.0,Calm,Calm,-,N/A,,Scattered Clouds,0,2013-07-22 06:40:00
3:00 AM,76.3,76.1,99,29.91,10.0,Calm,Calm,-,N/A,,Clear,0,2013-07-22 07:00:00
3:20 AM,76.6,75.6,96,29.91,10.0,Calm,Calm,-,N/A,,Clear,0,2013-07-22 07:20:00
3:40 AM,75.6,75.2,99,29.91,7.0,Calm,Calm,-,N/A,,Clear,0,2013-07-22 07:40:00
4:00 AM,75.2,75.2,100,29.90,7.0,Calm,Calm,-,N/A,,Clear,0,2013-07-22 08:00:00
4:20 AM,75.0,75.0,100,29.90,7.0,Calm,Calm,-,N/A,,Clear,0,2013-07-22 08:20:00
4:40 AM,74.7,74.7,100,29.90,7.0,Calm,Calm,-,N/A,,Clear,0,2013-07-22 08:40:00
5:00 AM,74.7,74.7,100,29.91,7.0,Calm,Calm,-,N/A,,Clear,0,2013-07-22 09:00:00
5:20 AM,75.2,75.2,100,29.90,7.0,Calm,Calm,-,N/A,,Clear,0,2013-07-22 09:20:00
5:40 AM,75.2,75.2,100,29.90,10.0,Calm,Calm,-,N/A,,Clear,0,2013-07-22 09:40:00
6:00 AM,75.2,75.2,100,29.90,10.0,Calm,Calm,-,N/A,,Clear,0,2013-07-22 10:00:00
6:20 AM,75.2,75.2,100,29.90,10.0,Calm,Calm,-,N/A,,Clear,0,2013-07-22 10:20:00
6:40 AM,75.6,75.4,99,29.91,7.0,Calm,Calm,-,N/A,,Clear,0,2013-07-22 10:40:00
7:00 AM,76.1,75.4,98,29.91,10.0,Calm,Calm,-,N/A,,Clear,0,2013-07-22 11:00:00
7:20 AM,77.0,75.4,95,29.91,10.0,Calm,Calm,-,N/A,,Clear,0,2013-07-22 11:20:00
7:40 AM,77.9,75.2,91,29.91,10.0,Calm,Calm,-,N/A,,Clear,0,2013-07-22 11:40:00
8:00 AM,78.1,75.4,91,29.92,10.0,Calm,Calm,-,N/A,,Clear,0,2013-07-22 12:00:00
8:20 AM,78.8,75.6,90,29.93,10.0,Calm,Calm,-,N/A,,Clear,0,2013-07-22 12:20:00
8:40 AM,81.0,75.7,84,29.92,10.0,Calm,Calm,-,N/A,,Clear,0,2013-07-22 12:40:00
9:00 AM,81.3,74.8,81,29.92,10.0,Calm,Calm,-,N/A,,Clear,0,2013-07-22 13:00:00
9:20 AM,81.0,74.7,81,29.92,10.0,Calm,Calm,-,N/A,,Scattered Clouds,0,2013-07-22 13:20:00
9:40 AM,81.5,74.5,79,29.92,10.0,Calm,Calm,-,N/A,,Scattered Clouds,0,2013-07-22 13:40:00
10:00 AM,81.5,74.5,79,29.92,10.0,Calm,Calm,-,N/A,,Scattered Clouds,0,2013-07-22 14:00:00
10:20 AM,81.5,74.1,78,29.92,10.0,Calm,Calm,-,N/A,,Scattered Clouds,0,2013-07-22 14:20:00
10:40 AM,82.4,74.5,77,29.92,10.0,Calm,Calm,-,N/A,,Clear,0,2013-07-22 14:40:00
11:00 AM,83.1,75.0,76,29.92,10.0,Calm,Calm,-,N/A,,Scattered Clouds,0,2013-07-22 15:00:00
11:20 AM,84.6,74.1,71,29.91,10.0,ESE,3.5,-,N/A,,Scattered Clouds,110,2013-07-22 15:20:00
11:40 AM,85.5,73.8,68,29.91,10.0,Calm,Calm,-,N/A,,Clear,0,2013-07-22 15:40:00
12:00 PM,85.3,72.7,66,29.90,10.0,Calm,Calm,-,N/A,,Clear,0,2013-07-22 16:00:00
12:20 PM,85.5,72.9,66,29.90,10.0,Calm,Calm,-,N/A,,Clear,0,2013-07-22 16:20:00
12:40 PM,86.9,74.5,66,29.90,10.0,ESE,3.5,-,N/A,,Scattered Clouds,120,2013-07-22 16:40:00
1:00 PM,86.9,73.6,64,29.89,10.0,Calm,Calm,-,N/A,,Mostly Cloudy,0,2013-07-22 17:00:00
1:20 PM,88.0,72.9,61,29.88,10.0,Calm,Calm,-,N/A,,Scattered Clouds,0,2013-07-22 17:20:00
1:40 PM,88.0,73.2,61,29.87,10.0,SE,4.6,-,N/A,,Scattered Clouds,130,2013-07-22 17:40:00
2:00 PM,88.5,73.0,60,29.86,10.0,South,3.5,-,N/A,,Scattered Clouds,180,2013-07-22 18:00:00
2:20 PM,89.1,74.7,62,29.86,10.0,ESE,3.5,-,N/A,,Scattered Clouds,120,2013-07-22 18:20:00
2:40 PM,89.1,73.6,60,29.85,10.0,Calm,Calm,-,N/A,,Scattered Clouds,0,2013-07-22 18:40:00
3:00 PM,89.6,73.2,58,29.84,10.0,SE,3.5,-,N/A,,Scattered Clouds,130,2013-07-22 19:00:00
3:20 PM,89.2,73.9,60,29.83,10.0,ESE,4.6,-,N/A,,Mostly Cloudy,120,2013-07-22 19:20:00
3:40 PM,89.6,73.8,59,29.82,10.0,SE,3.5,-,N/A,,Mostly Cloudy,140,2013-07-22 19:40:00
4:00 PM,89.6,75.0,62,29.81,10.0,SSE,3.5,-,N/A,,Mostly Cloudy,150,2013-07-22 20:00:00
4:20 PM,89.4,75.2,63,29.81,10.0,ESE,3.5,-,N/A,,Mostly Cloudy,120,2013-07-22 20:20:00
4:35 PM,89.8,76.1,64,29.80,10.0,SSE,3.5,-,N/A,,Mostly Cloudy,150,2013-07-22 20:35:00
5:00 PM,90.7,70.9,52,29.79,10.0,South,4.6,-,N/A,,Scattered Clouds,180,2013-07-22 21:00:00
5:20 PM,90.9,72.5,55,29.79,10.0,SSW,5.8,-,N/A,,Clear,200,2013-07-22 21:20:00
5:40 PM,91.2,73.2,55,29.78,10.0,South,4.6,-,N/A,,Mostly Cloudy,180,2013-07-22 21:40:00
6:00 PM,89.6,73.0,58,29.78,10.0,SSE,4.6,-,N/A,,Scattered Clouds,160,2013-07-22 22:00:00
6:20 PM,88.7,73.6,61,29.77,10.0,South,4.6,-,N/A,,Scattered Clouds,180,2013-07-22 22:20:00
6:40 PM,89.1,73.6,60,29.77,10.0,SSW,4.6,-,N/A,,Clear,200,2013-07-22 22:40:00
7:00 PM,89.1,73.9,61,29.77,10.0,South,4.6,-,N/A,,Clear,180,2013-07-22 23:00:00
7:20 PM,87.8,73.9,63,29.77,10.0,South,5.8,-,N/A,,Clear,180,2013-07-22 23:20:00
7:40 PM,87.4,74.3,65,29.78,10.0,South,4.6,-,N/A,,Scattered Clouds,170,2013-07-22 23:40:00
8:00 PM,87.1,74.7,66,29.78,10.0,South,4.6,-,N/A,,Clear,180,2013-07-23 00:00:00
8:20 PM,86.9,74.8,67,29.78,10.0,South,3.5,-,N/A,,Clear,170,2013-07-23 00:20:00
8:40 PM,86.4,75.2,69,29.77,10.0,South,4.6,-,N/A,,Scattered Clouds,180,2013-07-23 00:40:00
9:00 PM,86.0,75.6,71,29.77,10.0,Calm,Calm,-,N/A,,Clear,0,2013-07-23 01:00:00
9:20 PM,85.5,76.1,73,29.77,10.0,Calm,Calm,-,N/A,,Scattered Clouds,0,2013-07-23 01:20:00
9:45 PM,85.3,76.1,74,29.77,10.0,SSE,4.6,-,N/A,,Mostly Cloudy,160,2013-07-23 01:45:00
10:05 PM,85.1,75.7,73,29.77,10.0,SSW,5.8,-,N/A,,Scattered Clouds,200,2013-07-23 02:05:00
10:25 PM,84.4,75.2,74,29.78,10.0,South,4.6,-,N/A,,Mostly Cloudy,180,2013-07-23 02:25:00
10:45 PM,83.7,73.6,72,29.77,10.0,South,4.6,-,N/A,,Scattered Clouds,170,2013-07-23 02:45:00
11:05 PM,82.9,73.4,73,29.76,10.0,South,5.8,-,N/A,,Scattered Clouds,180,2013-07-23 03:05:00
11:25 PM,80.8,71.6,73,29.78,10.0,WNW,6.9,16.1,N/A,,Overcast,300,2013-07-23 03:25:00
11:45 PM,74.3,73.4,97,29.79,0.8,Calm,Calm,-,N/A,,Overcast,0,2013-07-23 03:45:00